Location: College Park
(38.9810°N, 76.9370°W)
Time: 20:55:54
(UTC-05:00)

Hubble Space Telescope - Pass Details

Date: 19 November 2017
Orbit: 537 x 541 km, 28.5° (Epoch: 24 November)

Event Time Altitude Azimuth Distance (km) Brightness Sun altitude
Exits shadow 04:19:27 12° 152° (SSE) 1,673 3.6 -30.1°
Drops below altitude 10° 04:20:18 10° 140° (SE) 1,779 3.9 -29.9°
Sets 04:23:46 0° 110° (ESE) 2,672 5.4 -29.3°
